• In Belgium
  • List of Countries
  • For 7 days
  • Water Temperature
  • Satellite Maps
  • Weather Map
  • Weather Widgets
  • user-avatar
    Login

    Hourly Weather Brisbane

    Today, 24 August, Thursday

    Time Temperature Precipitation Wind Pressure Humidity
    00:00 +18°C° 0.1 mm 4 mps 761 mmHg 80%
    01:00 +18°C° 0.1 mm 4 mps 761 mmHg 80%
    02:00 +18°C° 0 mm 4 mps 761 mmHg 80%
    03:00 +17°C° 0 mm 4 mps 760 mmHg 81%
    04:00 +17°C° 0 mm 3 mps 760 mmHg 77%
    05:00 +17°C° 0.1 mm 3 mps 760 mmHg 77%
    06:00 +17°C° 0.1 mm 3 mps 760 mmHg 78%
    07:00 +17°C° 0.1 mm 3 mps 760 mmHg 78%
    08:00 +19°C° 0.4 mm 4 mps 760 mmHg 71%
    09:00 +22°C° 0.4 mm 4 mps 760 mmHg 64%
    10:00 +23°C° 0 mm 5 mps 760 mmHg 61%
    11:00 +25°C° 0.5 mm 5 mps 760 mmHg 59%
    12:00 +25°C° 0.5 mm 5 mps 759 mmHg 57%
    13:00 +26°C° 0.5 mm 5 mps 759 mmHg 55%
    14:00 +26°C° 0.5 mm 5 mps 758 mmHg 52%
    15:00 +27°C° 0.5 mm 4 mps 758 mmHg 48%
    16:00 +27°C° 0.5 mm 4 mps 758 mmHg 45%
    17:00 +25°C° 0 mm 4 mps 758 mmHg 47%
    18:00 +23°C° 0 mm 4 mps 758 mmHg 50%
    19:00 +21°C° 0 mm 4 mps 758 mmHg 52%
    20:00 +20°C° 0.1 mm 4 mps 759 mmHg 48%
    21:00 +19°C° 0.1 mm 5 mps 759 mmHg 44%
    22:00 +19°C° 0.1 mm 5 mps 759 mmHg 40%
    23:00 +17°C° 0 mm 5 mps 760 mmHg 44%

    Tomorrow, 25 August, Friday

    Time Temperature Precipitation Wind Pressure Humidity
    00:00 +16°C° 0 mm 5 mps 760 mmHg 49%
    01:00 +15°C° 0 mm 4 mps 760 mmHg 54%
    02:00 +14°C° 0 mm 4 mps 760 mmHg 56%
    03:00 +13°C° 0 mm 4 mps 760 mmHg 58%
    04:00 +13°C° 0 mm 4 mps 760 mmHg 60%
    05:00 +13°C° 0 mm 4 mps 761 mmHg 62%
    06:00 +13°C° 0 mm 4 mps 761 mmHg 64%
    07:00 +13°C° 0 mm 4 mps 761 mmHg 66%
    08:00 +15°C° 0 mm 4 mps 762 mmHg 61%
    09:00 +18°C° 0 mm 4 mps 762 mmHg 55%
    10:00 +20°C° 0 mm 4 mps 762 mmHg 49%
    11:00 +21°C° 0 mm 4 mps 761 mmHg 44%
    12:00 +22°C° 0 mm 4 mps 761 mmHg 39%
    13:00 +23°C° 0 mm 4 mps 760 mmHg 34%
    14:00 +22°C° 0 mm 4 mps 760 mmHg 35%
    15:00 +22°C° 0 mm 4 mps 760 mmHg 36%
    16:00 +21°C° 0 mm 4 mps 761 mmHg 37%
    17:00 +20°C° 0 mm 4 mps 761 mmHg 43%
    18:00 +19°C° 0 mm 5 mps 762 mmHg 50%
    19:00 +16°C° 0 mm 5 mps 762 mmHg 56%
    20:00 +15°C° 0 mm 5 mps 763 mmHg 59%
    21:00 +15°C° 0 mm 5 mps 763 mmHg 62%
    22:00 +14°C° 0 mm 5 mps 764 mmHg 65%
    23:00 +13°C° 0 mm 5 mps 764 mmHg 66%

    Day after tomorrow, 26 August, Saturday

    Time Temperature Precipitation Wind Pressure Humidity
    00:00 +13°C° 0 mm 5 mps 764 mmHg 66%
    01:00 +12°C° 0 mm 5 mps 764 mmHg 66%
    02:00 +12°C° 0 mm 5 mps 764 mmHg 68%
    03:00 +10°C° 0 mm 5 mps 764 mmHg 69%
    04:00 +10°C° 0 mm 5 mps 763 mmHg 70%
    05:00 +11°C° 0 mm 4 mps 764 mmHg 70%
    06:00 +11°C° 0 mm 4 mps 764 mmHg 69%
    07:00 +11°C° 0 mm 4 mps 765 mmHg 69%
    08:00 +14°C° 0 mm 4 mps 765 mmHg 61%
    09:00 +17°C° 0 mm 4 mps 765 mmHg 53%
    10:00 +20°C° 0 mm 4 mps 765 mmHg 45%
    11:00 +21°C° 0 mm 4 mps 764 mmHg 40%
    12:00 +22°C° 0 mm 4 mps 763 mmHg 35%
    13:00 +25°C° 0 mm 3 mps 763 mmHg 30%
    14:00 +23°C° 0 mm 4 mps 763 mmHg 32%
    15:00 +23°C° 0 mm 4 mps 762 mmHg 34%
    16:00 +23°C° 0 mm 4 mps 762 mmHg 36%
    17:00 +21°C° 0 mm 4 mps 763 mmHg 47%
    18:00 +19°C° 0 mm 4 mps 763 mmHg 57%
    19:00 +17°C° 0 mm 4 mps 764 mmHg 67%
    20:00 +15°C° 0 mm 4 mps 764 mmHg 72%
    21:00 +16°C° 0 mm 3 mps 765 mmHg 76%
    22:00 +14°C° 0 mm 3 mps 765 mmHg 81%
    23:00 +14°C° 0 mm 3 mps 765 mmHg 82%

    27 August, Sunday

    Time Temperature Precipitation Wind Pressure Humidity
    00:00 +14°C° 0 mm 2 mps 765 mmHg 84%
    01:00 +14°C° 0 mm 2 mps 764 mmHg 85%
    02:00 +13°C° 0 mm 2 mps 764 mmHg 86%
    03:00 +13°C° 0 mm 2 mps 764 mmHg 87%
    04:00 +12°C° 0 mm 2 mps 764 mmHg 88%
    05:00 +13°C° 0 mm 2 mps 764 mmHg 87%
    06:00 +13°C° 0 mm 2 mps 764 mmHg 85%
    07:00 +13°C° 0 mm 2 mps 765 mmHg 83%
    08:00 +16°C° 0 mm 2 mps 765 mmHg 71%
    09:00 +20°C° 0 mm 1 mps 765 mmHg 59%
    10:00 +23°C° 0 mm 1 mps 764 mmHg 47%
    11:00 +25°C° 0 mm 1 mps 764 mmHg 41%
    12:00 +26°C° 0 mm 1 mps 763 mmHg 36%
    13:00 +27°C° 0 mm 1 mps 762 mmHg 30%
    14:00 +26°C° 0 mm 2 mps 762 mmHg 33%
    15:00 +25°C° 0 mm 2 mps 761 mmHg 36%
    16:00 +24°C° 0 mm 3 mps 761 mmHg 39%
    17:00 +21°C° 0 mm 3 mps 762 mmHg 48%
    18:00 +20°C° 0 mm 3 mps 762 mmHg 56%
    19:00 +18°C° 0 mm 2 mps 763 mmHg 65%
    20:00 +17°C° 0.3 mm 2 mps 763 mmHg 69%
    21:00 +16°C° 0.3 mm 2 mps 763 mmHg 74%
    22:00 +15°C° 0.3 mm 2 mps 764 mmHg 78%
    23:00 +15°C° 0.2 mm 2 mps 764 mmHg 77%

    28 August, Monday

    Time Temperature Precipitation Wind Pressure Humidity
    00:00 +14°C° 0.2 mm 2 mps 763 mmHg 77%
    01:00 +14°C° 0.2 mm 2 mps 763 mmHg 77%
    02:00 +13°C° 0.1 mm 2 mps 763 mmHg 78%
    03:00 +13°C° 0.1 mm 2 mps 763 mmHg 79%
    04:00 +12°C° 0.1 mm 2 mps 763 mmHg 80%
    05:00 +12°C° 0.1 mm 3 mps 764 mmHg 81%
    06:00 +12°C° 0.1 mm 3 mps 764 mmHg 83%
    07:00 +12°C° 0.1 mm 3 mps 765 mmHg 85%
    08:00 +16°C° 0.1 mm 3 mps 765 mmHg 76%
    09:00 +18°C° 0.1 mm 3 mps 765 mmHg 68%
    10:00 +20°C° 0.1 mm 3 mps 765 mmHg 60%
    11:00 +21°C° 0.2 mm 3 mps 764 mmHg 57%
    12:00 +22°C° 0.2 mm 3 mps 764 mmHg 54%
    13:00 +22°C° 0.2 mm 3 mps 763 mmHg 52%
    14:00 +22°C° 0.3 mm 3 mps 763 mmHg 55%
    15:00 +21°C° 0.3 mm 3 mps 763 mmHg 58%
    16:00 +20°C° 0.3 mm 4 mps 763 mmHg 61%
    17:00 +19°C° 0.2 mm 3 mps 764 mmHg 68%
    18:00 +17°C° 0.2 mm 3 mps 764 mmHg 76%
    19:00 +16°C° 0.2 mm 3 mps 765 mmHg 83%
    20:00 +16°C° 0 mm 3 mps 765 mmHg 85%
    21:00 +14°C° 0 mm 3 mps 766 mmHg 87%
    22:00 +14°C° 0 mm 3 mps 766 mmHg 89%
    23:00 +13°C° 0.1 mm 3 mps 766 mmHg 90%

    29 August, Tuesday

    Time Temperature Precipitation Wind Pressure Humidity
    00:00 +14°C° 0.1 mm 2 mps 766 mmHg 91%
    01:00 +14°C° 0.1 mm 2 mps 766 mmHg 92%
    02:00 +14°C° 0.1 mm 2 mps 766 mmHg 92%
    03:00 +14°C° 0.1 mm 2 mps 766 mmHg 91%
    04:00 +14°C° 0.1 mm 2 mps 766 mmHg 91%
    05:00 +14°C° 0.1 mm 2 mps 766 mmHg 91%
    06:00 +14°C° 0.1 mm 2 mps 766 mmHg 90%
    07:00 +14°C° 0.1 mm 2 mps 767 mmHg 89%
    08:00 +16°C° 0.1 mm 2 mps 767 mmHg 79%
    09:00 +19°C° 0.1 mm 2 mps 767 mmHg 69%
    10:00 +21°C° 0.1 mm 2 mps 767 mmHg 59%
    11:00 +23°C° 0.1 mm 2 mps 766 mmHg 53%
    12:00 +25°C° 0.1 mm 2 mps 765 mmHg 47%
    13:00 +26°C° 0.1 mm 2 mps 765 mmHg 41%
    14:00 +25°C° 0 mm 2 mps 765 mmHg 44%
    15:00 +24°C° 0 mm 2 mps 765 mmHg 47%
    16:00 +22°C° 0 mm 3 mps 765 mmHg 50%
    17:00 +21°C° 0 mm 3 mps 765 mmHg 59%
    18:00 +19°C° 0 mm 2 mps 765 mmHg 68%
    19:00 +17°C° 0 mm 2 mps 766 mmHg 77%
    20:00 +17°C° 0 mm 2 mps 766 mmHg 79%
    21:00 +16°C° 0 mm 2 mps 766 mmHg 82%
    22:00 +16°C° 0 mm 2 mps 766 mmHg 84%
    23:00 +15°C° 0 mm 1 mps 766 mmHg 86%
    Show more